Custer, SD

5:03 PM MDT on August 31, 2016 (GMT -0600)
Custer County

Weather History for KCUT - September, 2013

Change the Weather History Date:

Wednesday, September 11, 2013

  Actual Average Record
Temperature  
Mean Temperature 60 °F 56 °F  
Max Temperature 74 °F 70 °F 86 °F (1956)
Min Temperature 45 °F 43 °F 21 °F (1989)
Degree Days  
Heating Degree Days 5 9  
Month to date heating degree days 23 80  
Since 1 July heating degree days 120 234  
Cooling Degree Days 0 1  
Month to date cooling degree days 38 11  
Year to date cooling degree days 187 177  
Growing Degree Days 9 (Base 50)    
Moisture  
Dew Point 44 °F    
Average Humidity 64    
Maximum Humidity 93    
Minimum Humidity 35    
Precipitation  
Precipitation 0.00 in 0.06 in 0.87 in (2006)
Month to date precipitation 0.83 0.69  
Year to date precipitation 16.78 15.61  
Sea Level Pressure  
Sea Level Pressure 30.20 in    
Wind  
Wind Speed 3 mph (NNW)    
Max Wind Speed 10 mph    
Max Gust Speed 14 mph    
Visibility 10 miles    
Events      
T = Trace of Precipitation, MM = Missing Value Source: NWS Daily Summary

Daily Weather History Graph

Daily Weather History Graph

Search for Another Location

Airport or City:

Trip Planner

Search our weather history database for the weather conditions in past years. The results will help you decide how hot, cold, wet, or windy it might be!

Date:

Astronomy

Sep. 11, 2013 Rise Set
Actual Time 6:29 AM MDT 7:11 PM MDT
Civil Twilight 6:00 AM MDT 7:40 PM MDT
Nautical Twilight 5:26 AM MDT 8:14 PM MDT
Astronomical Twilight 4:50 AM MDT 8:50 PM MDT
Moon 1:12 PM MDT (9/11) 10:57 PM MDT (9/11)
Length of Visible Light 13h 39m
Length of Day
12h 41m
Waxing Crescent, 39% of the Moon is Illuminated
Sep 11
Waxing Crescent
Sep 12
First Quarter
Sep 19
Full
Sep 26
Last Quarter
Oct 4
New

Hourly Weather History & Observations

Time (MDT) Temp. Windchill Dew Point Humidity Pressure Visibility Wind Dir Wind Speed Gust Speed Precip Events Conditions
12:53 AM 48.9 °F - 46.9 °F 93% 30.16 in 10.0 mi NW 3.5 mph - N/A   Clear
1:53 AM 48.0 °F - 46.0 °F 93% 30.17 in 10.0 mi West 4.6 mph - N/A   Clear
2:53 AM 50.0 °F - 45.0 °F 83% 30.16 in 10.0 mi NNW 5.8 mph - N/A   Clear
3:53 AM 46.0 °F 44.8 °F 44.1 °F 93% 30.18 in 10.0 mi WNW 3.5 mph - N/A   Clear
4:53 AM 46.9 °F - 44.1 °F 90% 30.18 in 10.0 mi NW 3.5 mph - N/A   Clear
5:53 AM 46.0 °F 44.8 °F 43.0 °F 89% 30.19 in 10.0 mi NW 3.5 mph - N/A   Clear
6:53 AM 50.0 °F - 44.1 °F 80% 30.20 in 10.0 mi Calm Calm - N/A   Clear
7:53 AM 53.1 °F - 45.0 °F 74% 30.19 in 10.0 mi NW 3.5 mph - N/A   Clear
8:53 AM 57.9 °F - 48.0 °F 70% 30.22 in 10.0 mi West 3.5 mph - N/A   Clear
9:53 AM 64.0 °F - 46.0 °F 52% 30.20 in 10.0 mi Calm Calm - N/A   Partly Cloudy
10:53 AM 66.9 °F - 42.1 °F 40% 30.21 in 10.0 mi ESE 4.6 mph - N/A   Clear
11:53 AM 70.0 °F - 43.0 °F 38% 30.20 in 10.0 mi Calm Calm - N/A   Clear
12:53 PM 72.0 °F - 43.0 °F 35% 30.19 in 10.0 mi Variable 4.6 mph - N/A   Clear
1:53 PM 71.1 °F - 42.1 °F 35% 30.18 in 10.0 mi Calm Calm - N/A   Clear
2:53 PM 72.0 °F - 43.0 °F 35% 30.17 in 10.0 mi Calm Calm - N/A   Partly Cloudy
3:53 PM 71.1 °F - 46.9 °F 42% 30.18 in 10.0 mi Variable 3.5 mph - N/A   Mostly Cloudy
4:53 PM 68.0 °F - 46.0 °F 45% 30.20 in 10.0 mi East 6.9 mph - N/A   Overcast
5:53 PM 66.9 °F - 44.1 °F 44% 30.21 in 10.0 mi East 4.6 mph - N/A   Overcast
6:53 PM 63.0 °F - 45.0 °F 52% 30.21 in 10.0 mi ENE 4.6 mph - N/A   Partly Cloudy
7:53 PM 62.1 °F - 44.1 °F 52% 30.22 in 10.0 mi NNE 3.5 mph - N/A   Clear
8:53 PM 57.9 °F - 44.1 °F 60% 30.23 in 10.0 mi Calm Calm - N/A   Clear
9:53 PM 55.9 °F - 45.0 °F 67% 30.22 in 10.0 mi Calm Calm - N/A   Clear
10:53 PM 54.0 °F - 43.0 °F 66% 30.23 in 10.0 mi Calm Calm - N/A   Clear
11:53 PM 51.1 °F - 43.0 °F 74% 30.23 in 10.0 mi NNW 3.5 mph - N/A   Clear